Window Rock, AZ

10:06 PM MDT on June 24, 2017 (GMT -0600)
Window Rock

Weather History for KRQE - October, 2011

Change the Weather History Date:

Thursday, October 20, 2011

  Actual Average Record
Temperature  
Mean Temperature 49 °F -  
Max Temperature 70 °F 63 °F 78 °F (1940)
Min Temperature 28 °F 31 °F 15 °F (1976)
Degree Days  
Heating Degree Days 16    
Moisture  
Dew Point 17 °F    
Average Humidity 33    
Maximum Humidity 69    
Minimum Humidity 10    
Precipitation  
Precipitation 0.00 in - - ()
Sea Level Pressure  
Sea Level Pressure 30.14 in    
Wind  
Wind Speed 2 mph (WSW)    
Max Wind Speed 14 mph    
Max Gust Speed 20 mph    
Visibility 10 miles    
Events      
Averages and records for this station are not official NWS values.
T = Trace of Precipitation, MM = Missing Value Source: NWS Daily Summary

Daily Weather History Graph

Daily Weather History Graph

Search for Another Location

Airport or City:

Trip Planner

Search our weather history database for the weather conditions in past years. The results will help you decide how hot, cold, wet, or windy it might be!

Date:

Astronomy

Oct. 20, 2011 Rise Set
Actual Time 7:26 AM MDT 6:34 PM MDT
Civil Twilight 7:01 AM MDT 7:00 PM MDT
Nautical Twilight 6:31 AM MDT 7:30 PM MDT
Astronomical Twilight 6:01 AM MDT 7:59 PM MDT
Moon 12:29 AM MDT (10/20) 2:32 PM MDT (10/20)
Length of Visible Light 11h 59m
Length of Day
11h 07m
Last Quarter, 43% of the Moon is Illuminated
Oct 20
Last Quarter
Oct 26
New
Nov 2
First Quarter
Nov 10
Full
Nov 18
Last Quarter

Hourly Weather History & Observations

Time (MDT) Temp. Windchill Dew Point Humidity Pressure Visibility Wind Dir Wind Speed Gust Speed Precip Events Conditions
12:53 AM 33.1 °F - 19.0 °F 56% 29.97 in 10.0 mi Calm Calm - N/A   Clear
1:53 AM 36.0 °F - 19.0 °F 50% 29.95 in 10.0 mi Calm Calm - N/A   Clear
2:53 AM 45.0 °F - 21.0 °F 39% 29.90 in 10.0 mi Calm Calm - N/A   Clear
3:53 AM 44.1 °F - 21.0 °F 40% 29.91 in 10.0 mi Calm Calm - N/A   Clear
4:53 AM 42.1 °F - 21.9 °F 45% 29.92 in 10.0 mi Calm Calm - N/A   Clear
5:53 AM 34.0 °F - 21.0 °F 59% 29.98 in 10.0 mi Calm Calm - N/A   Clear
7:53 AM 28.9 °F 23.9 °F 19.9 °F 69% 30.11 in 10.0 mi SSW 4.6 mph - N/A   Clear
8:53 AM 42.1 °F - 21.9 °F 45% 30.10 in 10.0 mi Calm Calm - N/A   Clear
9:53 AM 48.9 °F - 23.0 °F 36% 30.08 in 10.0 mi Calm Calm - N/A   Clear
11:53 AM - - - N/A% 30.23 in - North - - N/A   Unknown
12:53 PM 68.0 °F - 15.1 °F 13% 30.22 in - North - - N/A   Unknown
1:53 PM 70.0 °F - 17.1 °F 13% 30.20 in - North - - N/A   Unknown
2:53 PM 70.0 °F - 12.9 °F 11% 30.20 in 10.0 mi NW 13.8 mph - N/A   Clear
3:53 PM 69.1 °F - 15.1 °F 13% 30.20 in 10.0 mi WNW 10.4 mph 19.6 mph N/A   Clear
4:53 PM 66.0 °F - 15.1 °F 14% 30.20 in 10.0 mi West 8.1 mph 17.3 mph N/A   Clear
5:53 PM 66.0 °F - 8.1 °F 10% 30.21 in 10.0 mi West 10.4 mph - N/A   Clear
6:53 PM 57.0 °F - 10.9 °F 16% 30.23 in 10.0 mi SSW 3.5 mph - N/A   Clear
7:53 PM 50.0 °F - 12.9 °F 23% 30.25 in 10.0 mi West 4.6 mph - N/A   Clear
8:53 PM 44.1 °F - 14.0 °F 30% 30.26 in 10.0 mi Calm Calm - N/A   Clear
9:53 PM 42.1 °F - 12.9 °F 31% 30.27 in 10.0 mi Calm Calm - N/A   Clear
10:53 PM 36.0 °F 31.1 °F 15.1 °F 43% 30.29 in 10.0 mi SSW 5.8 mph - N/A   Clear
11:53 PM 34.0 °F - 15.1 °F 46% 30.29 in 10.0 mi Calm Calm - N/A   Clear